Location: Burla
(50.9568°N, 10.4983°E)
Time: 12:04:15
(UTC+00:00)

Cosmos 1328 - Pass Details

Date: 18 January 2026
Orbit: 460 x 472 km, 82.5° (Epoch: 16 February)

Event Time Altitude Azimuth Distance (km) Brightness Sun altitude
Exits shadow 05:59:24 - 341° (NNW) 2,044 6.4 -11.1°
Reaches altitude 10° 06:00:22 10° 337° (NNW) 1,650 5.9 -11.0°
Maximum altitude 06:03:48 43° 266° (W) 682 3.9 -10.5°
Drops below altitude 10° 06:07:13 10° 194° (SSW) 1,642 6.3 -10.0°
Sets 06:09:21 0° 187° (S) 2,516 7.4 -9.6°
